contact:dominique.lefevre@mio.osupytheas.fr, maurice.libes@osupytheas.fr, didier.mallarino@osupytheas.fr
Project:EMSO http://www.emso-fr.org/EMSO-France
Depth: 2436.0 m
Title:EMSO Ligure Ouest : Data MII capteur MICROCAT
DateTime_Computer,Latitude,Longitude,Temperature,Conductivity,Pressure,DateTime_Instrument
DateTime_Computer,Latitude,Longitude,degC,S m-1,dbar,DateTime_Instrument
2021-10-07T00:01:21Z,42.805,6.029,13.3004,4.60022,2470.287,2021-10-07T02:02:43Z
2021-10-07T00:04:24Z,42.805,6.029,13.3005,4.60021,2470.297,2021-10-07T02:05:46Z
2021-10-07T00:07:27Z,42.805,6.029,13.3005,4.60023,2470.297,2021-10-07T02:08:50Z
2021-10-07T00:10:30Z,42.805,6.029,13.3009,4.60029,2470.287,2021-10-07T02:11:53Z
2021-10-07T00:13:33Z,42.805,6.029,13.3005,4.60029,2470.31,2021-10-07T02:14:56Z
2021-10-07T00:16:36Z,42.805,6.029,13.3004,4.60026,2470.264,2021-10-07T02:17:59Z
2021-10-07T00:19:39Z,42.805,6.029,13.3004,4.60022,2470.25,2021-10-07T02:21:02Z
2021-10-07T00:22:42Z,42.805,6.029,13.3006,4.60021,2470.287,2021-10-07T02:24:05Z
2021-10-07T00:25:46Z,42.805,6.029,13.3009,4.60025,2470.273,2021-10-07T02:27:08Z
2021-10-07T00:28:49Z,42.805,6.029,13.3002,4.60024,2470.287,2021-10-07T02:30:11Z
2021-10-07T00:31:52Z,42.805,6.029,13.3005,4.60029,2470.264,2021-10-07T02:33:15Z
2021-10-07T00:34:55Z,42.805,6.029,13.3005,4.60022,2470.31,2021-10-07T02:36:18Z
2021-10-07T00:37:58Z,42.805,6.029,13.3007,4.60029,2470.26,2021-10-07T02:39:21Z
2021-10-07T00:41:01Z,42.805,6.029,13.3008,4.60026,2470.264,2021-10-07T02:42:24Z
2021-10-07T00:44:04Z,42.805,6.029,13.3005,4.60022,2470.264,2021-10-07T02:45:27Z
2021-10-07T00:47:07Z,42.805,6.029,13.3006,4.60021,2470.25,2021-10-07T02:48:30Z
2021-10-07T00:50:11Z,42.805,6.029,13.3004,4.60019,2470.287,2021-10-07T02:51:33Z
2021-10-07T00:53:14Z,42.805,6.029,13.3006,4.60020,2470.25,2021-10-07T02:54:36Z
2021-10-07T00:56:17Z,42.805,6.029,13.3004,4.60021,2470.264,2021-10-07T02:57:40Z
2021-10-07T00:59:20Z,42.805,6.029,13.3006,4.60022,2470.264,2021-10-07T03:00:43Z
2021-10-07T01:02:23Z,42.805,6.029,13.3006,4.60021,2470.25,2021-10-07T03:03:46Z
2021-10-07T01:05:26Z,42.805,6.029,13.3007,4.60023,2470.264,2021-10-07T03:06:49Z
2021-10-07T01:08:29Z,42.805,6.029,13.3004,4.60025,2470.264,2021-10-07T03:09:52Z
2021-10-07T01:11:32Z,42.805,6.029,13.3006,4.60025,2470.264,2021-10-07T03:12:55Z
2021-10-07T01:14:35Z,42.805,6.029,13.3004,4.60024,2470.25,2021-10-07T03:15:58Z
2021-10-07T01:17:39Z,42.805,6.029,13.3005,4.60024,2470.203,2021-10-07T03:19:01Z
2021-10-07T01:20:42Z,42.805,6.029,13.3007,4.60022,2470.24,2021-10-07T03:22:04Z
2021-10-07T01:23:45Z,42.805,6.029,13.3004,4.60022,2470.227,2021-10-07T03:25:08Z
2021-10-07T01:26:48Z,42.805,6.029,13.3003,4.60023,2470.227,2021-10-07T03:28:11Z
2021-10-07T01:29:51Z,42.805,6.029,13.3004,4.60022,2470.227,2021-10-07T03:31:14Z
2021-10-07T01:32:54Z,42.805,6.029,13.3006,4.60025,2470.227,2021-10-07T03:34:17Z
2021-10-07T01:35:57Z,42.805,6.029,13.3007,4.60024,2470.24,2021-10-07T03:37:20Z
2021-10-07T01:39:00Z,42.805,6.029,13.3011,4.60024,2470.227,2021-10-07T03:40:23Z
2021-10-07T01:42:04Z,42.805,6.029,13.3011,4.60029,2470.24,2021-10-07T03:43:26Z
2021-10-07T01:45:07Z,42.805,6.029,13.3013,4.60029,2470.227,2021-10-07T03:46:29Z
2021-10-07T01:48:10Z,42.805,6.029,13.3006,4.60027,2470.24,2021-10-07T03:49:33Z
2021-10-07T01:51:13Z,42.805,6.029,13.3015,4.60031,2470.227,2021-10-07T03:52:36Z
2021-10-07T01:54:16Z,42.805,6.029,13.3016,4.60035,2470.227,2021-10-07T03:55:39Z
2021-10-07T01:57:19Z,42.805,6.029,13.3019,4.60034,2470.217,2021-10-07T03:58:42Z
2021-10-07T02:00:22Z,42.805,6.029,13.3010,4.60033,2470.24,2021-10-07T04:01:45Z
2021-10-07T02:03:25Z,42.805,6.029,13.3012,4.60052,2470.203,2021-10-07T04:04:48Z
2021-10-07T02:06:28Z,42.805,6.029,13.3031,4.60093,2470.24,2021-10-07T04:07:51Z
2021-10-07T02:09:32Z,42.805,6.029,13.3031,4.60119,2470.227,2021-10-07T04:10:54Z
2021-10-07T02:12:35Z,42.805,6.029,13.3030,4.60112,2470.227,2021-10-07T04:13:57Z
2021-10-07T02:15:38Z,42.805,6.029,13.3025,4.60092,2470.217,2021-10-07T04:17:01Z
2021-10-07T02:18:41Z,42.805,6.029,13.3030,4.60107,2470.217,2021-10-07T04:20:04Z
2021-10-07T02:21:44Z,42.805,6.029,13.3039,4.60133,2470.203,2021-10-07T04:23:07Z
2021-10-07T02:24:47Z,42.805,6.029,13.3051,4.60093,2470.217,2021-10-07T04:26:10Z
2021-10-07T02:27:50Z,42.805,6.029,13.3040,4.60099,2470.194,2021-10-07T04:29:13Z
2021-10-07T02:30:53Z,42.805,6.029,13.3049,4.60120,2470.24,2021-10-07T04:32:16Z
2021-10-07T02:33:57Z,42.805,6.029,13.3043,4.60162,2470.24,2021-10-07T04:35:19Z
2021-10-07T02:37:00Z,42.805,6.029,13.3058,4.60123,2470.217,2021-10-07T04:38:22Z
2021-10-07T02:40:03Z,42.805,6.029,13.3063,4.60140,2470.203,2021-10-07T04:41:26Z
2021-10-07T02:43:06Z,42.805,6.029,13.3050,4.60097,2470.24,2021-10-07T04:44:29Z
2021-10-07T02:46:09Z,42.805,6.029,13.3053,4.60077,2470.217,2021-10-07T04:47:32Z
2021-10-07T02:49:12Z,42.805,6.029,13.3041,4.60143,2470.217,2021-10-07T04:50:35Z
2021-10-07T02:52:15Z,42.805,6.029,13.3046,4.60114,2470.217,2021-10-07T04:53:38Z
2021-10-07T02:55:18Z,42.805,6.029,13.3044,4.60135,2470.227,2021-10-07T04:56:41Z
2021-10-07T02:58:21Z,42.805,6.029,13.3054,4.60126,2470.227,2021-10-07T04:59:44Z
2021-10-07T03:01:25Z,42.805,6.029,13.3033,4.60137,2470.24,2021-10-07T05:02:47Z
2021-10-07T03:04:28Z,42.805,6.029,13.3041,4.60088,2470.24,2021-10-07T05:05:50Z
2021-10-07T03:07:31Z,42.805,6.029,13.3048,4.60099,2470.24,2021-10-07T05:08:54Z
2021-10-07T03:10:34Z,42.805,6.029,13.3044,4.60109,2470.203,2021-10-07T05:11:57Z
2021-10-07T03:13:37Z,42.805,6.029,13.3052,4.60081,2470.203,2021-10-07T05:15:00Z
2021-10-07T03:16:40Z,42.805,6.029,13.3029,4.60102,2470.25,2021-10-07T05:18:03Z
2021-10-07T03:19:43Z,42.805,6.029,13.3044,4.60092,2470.264,2021-10-07T05:21:06Z
2021-10-07T03:22:46Z,42.805,6.029,13.3051,4.60111,2470.264,2021-10-07T05:24:09Z
2021-10-07T03:25:50Z,42.805,6.029,13.3048,4.60077,2470.203,2021-10-07T05:27:12Z
2021-10-07T03:28:53Z,42.805,6.029,13.3061,4.60114,2470.24,2021-10-07T05:30:15Z
2021-10-07T03:31:56Z,42.805,6.029,13.3068,4.60106,2470.24,2021-10-07T05:33:19Z
2021-10-07T03:34:59Z,42.805,6.029,13.3063,4.60132,2470.227,2021-10-07T05:36:22Z
2021-10-07T03:38:02Z,42.805,6.029,13.3050,4.60083,2470.203,2021-10-07T05:39:25Z
2021-10-07T03:41:05Z,42.805,6.029,13.3043,4.60084,2470.287,2021-10-07T05:42:28Z
2021-10-07T03:44:08Z,42.805,6.029,13.3053,4.60104,2470.264,2021-10-07T05:45:31Z
2021-10-07T03:47:11Z,42.805,6.029,13.3069,4.60145,2470.203,2021-10-07T05:48:34Z
2021-10-07T03:50:14Z,42.805,6.029,13.3051,4.60122,2470.24,2021-10-07T05:51:37Z
2021-10-07T03:53:18Z,42.805,6.029,13.3043,4.60106,2470.264,2021-10-07T05:54:40Z
2021-10-07T03:56:21Z,42.805,6.029,13.3055,4.60101,2470.25,2021-10-07T05:57:43Z
2021-10-07T03:59:24Z,42.805,6.029,13.3061,4.60090,2470.25,2021-10-07T06:00:47Z
2021-10-07T04:02:27Z,42.805,6.029,13.3063,4.60135,2470.287,2021-10-07T06:03:50Z
2021-10-07T04:05:30Z,42.805,6.029,13.3099,4.60083,2470.264,2021-10-07T06:06:53Z
2021-10-07T04:08:33Z,42.805,6.029,13.3126,4.60094,2470.297,2021-10-07T06:09:56Z
2021-10-07T04:11:36Z,42.805,6.029,13.3106,4.60084,2470.25,2021-10-07T06:12:59Z
2021-10-07T04:14:39Z,42.805,6.029,13.3097,4.60100,2470.287,2021-10-07T06:16:02Z
2021-10-07T04:17:43Z,42.805,6.029,13.3080,4.60056,2470.297,2021-10-07T06:19:05Z
2021-10-07T04:20:46Z,42.805,6.029,13.3075,4.60070,2470.31,2021-10-07T06:22:08Z
2021-10-07T04:23:49Z,42.805,6.029,13.3071,4.60069,2470.31,2021-10-07T06:25:11Z
2021-10-07T04:26:52Z,42.805,6.029,13.3082,4.60063,2470.297,2021-10-07T06:28:15Z
2021-10-07T04:29:55Z,42.805,6.029,13.3059,4.60081,2470.31,2021-10-07T06:31:18Z
2021-10-07T04:32:58Z,42.805,6.029,13.3070,4.60096,2470.297,2021-10-07T06:34:21Z
2021-10-07T04:36:01Z,42.805,6.029,13.3068,4.60107,2470.31,2021-10-07T06:37:24Z
2021-10-07T04:39:04Z,42.805,6.029,13.3069,4.60078,2470.297,2021-10-07T06:40:27Z
2021-10-07T04:42:07Z,42.805,6.029,13.3071,4.60079,2470.31,2021-10-07T06:43:30Z
2021-10-07T04:45:11Z,42.805,6.029,13.3078,4.60058,2470.31,2021-10-07T06:46:33Z
2021-10-07T04:48:14Z,42.805,6.029,13.3032,4.60077,2470.334,2021-10-07T06:49:36Z
2021-10-07T04:51:17Z,42.805,6.029,13.3021,4.60054,2470.334,2021-10-07T06:52:40Z
2021-10-07T04:54:20Z,42.805,6.029,13.3012,4.60042,2470.334,2021-10-07T06:55:43Z
2021-10-07T04:57:23Z,42.805,6.029,13.3024,4.60059,2470.32,2021-10-07T06:58:46Z
2021-10-07T05:00:26Z,42.805,6.029,13.3047,4.60067,2470.343,2021-10-07T07:01:49Z
2021-10-07T05:03:29Z,42.805,6.029,13.3046,4.60062,2470.347,2021-10-07T07:04:52Z
2021-10-07T05:06:32Z,42.805,6.029,13.3054,4.60088,2470.343,2021-10-07T07:07:55Z
2021-10-07T05:09:35Z,42.805,6.029,13.3044,4.60183,2470.357,2021-10-07T07:10:58Z
2021-10-07T05:12:39Z,42.805,6.029,13.3067,4.60079,2470.334,2021-10-07T07:14:01Z
2021-10-07T05:15:42Z,42.805,6.029,13.3067,4.60091,2470.357,2021-10-07T07:17:05Z
2021-10-07T05:18:45Z,42.805,6.029,13.3067,4.60097,2470.343,2021-10-07T07:20:08Z
2021-10-07T05:21:48Z,42.805,6.029,13.3075,4.60062,2470.357,2021-10-07T07:23:11Z
2021-10-07T05:24:51Z,42.805,6.029,13.3072,4.60053,2470.343,2021-10-07T07:26:14Z
2021-10-07T05:27:54Z,42.805,6.029,13.3072,4.60092,2470.366,2021-10-07T07:29:17Z
2021-10-07T05:30:57Z,42.805,6.029,13.3069,4.60064,2470.334,2021-10-07T07:32:20Z
2021-10-07T05:34:00Z,42.805,6.029,13.3054,4.60068,2470.357,2021-10-07T07:35:23Z
2021-10-07T05:37:04Z,42.805,6.029,13.3069,4.60058,2470.38,2021-10-07T07:38:26Z
2021-10-07T05:40:07Z,42.805,6.029,13.3069,4.60088,2470.357,2021-10-07T07:41:29Z
2021-10-07T05:43:10Z,42.805,6.029,13.3054,4.60066,2470.39,2021-10-07T07:44:33Z
2021-10-07T05:46:13Z,42.805,6.029,13.3054,4.60097,2470.38,2021-10-07T07:47:36Z
2021-10-07T05:49:16Z,42.805,6.029,13.3049,4.60070,2470.404,2021-10-07T07:50:39Z
2021-10-07T05:52:19Z,42.805,6.029,13.3056,4.60094,2470.404,2021-10-07T07:53:42Z
2021-10-07T05:55:22Z,42.805,6.029,13.3039,4.60125,2470.404,2021-10-07T07:56:45Z
2021-10-07T05:58:25Z,42.805,6.029,13.3041,4.60130,2470.366,2021-10-07T07:59:48Z
2021-10-07T06:01:29Z,42.805,6.029,13.3048,4.60094,2470.38,2021-10-07T08:02:51Z
2021-10-07T06:04:32Z,42.805,6.029,13.3041,4.60098,2470.38,2021-10-07T08:05:54Z
2021-10-07T06:07:35Z,42.805,6.029,13.3054,4.60127,2470.39,2021-10-07T08:08:58Z
2021-10-07T06:10:38Z,42.805,6.029,13.3060,4.60085,2470.39,2021-10-07T08:12:01Z
2021-10-07T06:13:41Z,42.805,6.029,13.3044,4.60113,2470.404,2021-10-07T08:15:04Z
2021-10-07T06:16:44Z,42.805,6.029,13.3037,4.60101,2470.427,2021-10-07T08:18:07Z
2021-10-07T06:19:47Z,42.805,6.029,13.3030,4.60110,2470.404,2021-10-07T08:21:10Z
2021-10-07T06:22:50Z,42.805,6.029,13.3036,4.60092,2470.427,2021-10-07T08:24:13Z
2021-10-07T06:25:53Z,42.805,6.029,13.3026,4.60094,2470.39,2021-10-07T08:27:16Z
2021-10-07T06:28:57Z,42.805,6.029,13.3030,4.60109,2470.39,2021-10-07T08:30:19Z
2021-10-07T06:32:00Z,42.805,6.029,13.3033,4.60112,2470.427,2021-10-07T08:33:22Z
2021-10-07T06:35:03Z,42.805,6.029,13.3041,4.60110,2470.39,2021-10-07T08:36:26Z
2021-10-07T06:38:06Z,42.805,6.029,13.3026,4.60092,2470.427,2021-10-07T08:39:29Z
2021-10-07T06:41:09Z,42.805,6.029,13.3019,4.60069,2470.39,2021-10-07T08:42:32Z
2021-10-07T06:44:12Z,42.805,6.029,13.3023,4.60064,2470.413,2021-10-07T08:45:35Z
2021-10-07T06:47:15Z,42.805,6.029,13.3026,4.60072,2470.427,2021-10-07T08:48:38Z
2021-10-07T06:50:18Z,42.805,6.029,13.3029,4.60083,2470.45,2021-10-07T08:51:41Z
2021-10-07T06:53:22Z,42.805,6.029,13.3026,4.60068,2470.413,2021-10-07T08:54:44Z
2021-10-07T06:56:25Z,42.805,6.029,13.3024,4.60069,2470.45,2021-10-07T08:57:47Z
2021-10-07T06:59:28Z,42.805,6.029,13.3021,4.60078,2470.437,2021-10-07T09:00:51Z
2021-10-07T07:02:31Z,42.805,6.029,13.3021,4.60081,2470.427,2021-10-07T09:03:54Z
2021-10-07T07:05:34Z,42.805,6.029,13.3026,4.60072,2470.427,2021-10-07T09:06:57Z
2021-10-07T07:08:37Z,42.805,6.029,13.3022,4.60074,2470.413,2021-10-07T09:10:00Z
2021-10-07T07:11:40Z,42.805,6.029,13.3020,4.60072,2470.413,2021-10-07T09:13:03Z
2021-10-07T07:14:43Z,42.805,6.029,13.3021,4.60068,2470.413,2021-10-07T09:16:06Z
2021-10-07T07:17:46Z,42.805,6.029,13.3024,4.60084,2470.413,2021-10-07T09:19:09Z
2021-10-07T07:20:50Z,42.805,6.029,13.3024,4.60079,2470.427,2021-10-07T09:22:12Z
2021-10-07T07:23:53Z,42.805,6.029,13.3019,4.60077,2470.437,2021-10-07T09:25:15Z
2021-10-07T07:26:56Z,42.805,6.029,13.3024,4.60059,2470.427,2021-10-07T09:28:19Z
2021-10-07T07:29:59Z,42.805,6.029,13.3022,4.60061,2470.45,2021-10-07T09:31:22Z
2021-10-07T07:33:02Z,42.805,6.029,13.3024,4.60082,2470.46,2021-10-07T09:34:25Z
2021-10-07T07:36:05Z,42.805,6.029,13.3020,4.60067,2470.437,2021-10-07T09:37:28Z
2021-10-07T07:39:08Z,42.805,6.029,13.3022,4.60072,2470.427,2021-10-07T09:40:31Z
2021-10-07T07:42:11Z,42.805,6.029,13.3024,4.60064,2470.46,2021-10-07T09:43:34Z
2021-10-07T07:45:15Z,42.805,6.029,13.3023,4.60066,2470.437,2021-10-07T09:46:37Z
2021-10-07T07:48:18Z,42.805,6.029,13.3025,4.60064,2470.39,2021-10-07T09:49:40Z
2021-10-07T07:51:21Z,42.805,6.029,13.3027,4.60067,2470.413,2021-10-07T09:52:44Z
2021-10-07T07:54:24Z,42.805,6.029,13.3026,4.60070,2470.45,2021-10-07T09:55:47Z
2021-10-07T07:57:27Z,42.805,6.029,13.3025,4.60074,2470.413,2021-10-07T09:58:50Z
2021-10-07T08:00:30Z,42.805,6.029,13.3024,4.60057,2470.413,2021-10-07T10:01:53Z
2021-10-07T08:03:33Z,42.805,6.029,13.3021,4.60064,2470.427,2021-10-07T10:04:56Z
2021-10-07T08:06:36Z,42.805,6.029,13.3019,4.60064,2470.437,2021-10-07T10:07:59Z
2021-10-07T08:09:39Z,42.805,6.029,13.3009,4.60052,2470.413,2021-10-07T10:11:02Z
2021-10-07T08:12:43Z,42.805,6.029,13.3009,4.60044,2470.437,2021-10-07T10:14:05Z
2021-10-07T08:15:46Z,42.805,6.029,13.3014,4.60048,2470.413,2021-10-07T10:17:09Z
2021-10-07T08:18:49Z,42.805,6.029,13.3006,4.60036,2470.413,2021-10-07T10:20:12Z
2021-10-07T08:21:52Z,42.805,6.029,13.3011,4.60052,2470.427,2021-10-07T10:23:15Z
2021-10-07T08:24:55Z,42.805,6.029,13.3018,4.60055,2470.404,2021-10-07T10:26:18Z
2021-10-07T08:27:58Z,42.805,6.029,13.3002,4.60052,2470.45,2021-10-07T10:29:21Z
2021-10-07T08:31:01Z,42.805,6.029,13.3009,4.60046,2470.39,2021-10-07T10:32:24Z
2021-10-07T08:34:04Z,42.805,6.029,13.3009,4.60044,2470.413,2021-10-07T10:35:27Z
2021-10-07T08:37:08Z,42.805,6.029,13.3009,4.60076,2470.413,2021-10-07T10:38:30Z
2021-10-07T08:40:11Z,42.805,6.029,13.3014,4.60064,2470.413,2021-10-07T10:41:34Z
2021-10-07T08:43:14Z,42.805,6.029,13.3012,4.60063,2470.404,2021-10-07T10:44:37Z
2021-10-07T08:46:17Z,42.805,6.029,13.3009,4.60060,2470.413,2021-10-07T10:47:40Z
2021-10-07T08:49:20Z,42.805,6.029,13.3013,4.60062,2470.427,2021-10-07T10:50:43Z
2021-10-07T08:52:23Z,42.805,6.029,13.3019,4.60057,2470.427,2021-10-07T10:53:46Z
2021-10-07T08:55:26Z,42.805,6.029,13.3011,4.60044,2470.38,2021-10-07T10:56:49Z
2021-10-07T08:58:29Z,42.805,6.029,13.3015,4.60048,2470.366,2021-10-07T10:59:52Z
2021-10-07T09:01:33Z,42.805,6.029,13.3007,4.60057,2470.38,2021-10-07T11:02:55Z
2021-10-07T09:04:36Z,42.805,6.029,13.3015,4.60058,2470.366,2021-10-07T11:05:59Z
2021-10-07T09:07:39Z,42.805,6.029,13.3010,4.60051,2470.39,2021-10-07T11:09:02Z
2021-10-07T09:10:42Z,42.805,6.029,13.3010,4.60044,2470.38,2021-10-07T11:12:05Z
2021-10-07T09:13:45Z,42.805,6.029,13.3016,4.60050,2470.366,2021-10-07T11:15:08Z
2021-10-07T09:16:48Z,42.805,6.029,13.3013,4.60048,2470.38,2021-10-07T11:18:11Z
2021-10-07T09:19:51Z,42.805,6.029,13.3013,4.60057,2470.404,2021-10-07T11:21:14Z
2021-10-07T09:22:54Z,42.805,6.029,13.3013,4.60066,2470.39,2021-10-07T11:24:17Z
2021-10-07T09:25:58Z,42.805,6.029,13.3013,4.60070,2470.366,2021-10-07T11:27:20Z
2021-10-07T09:29:01Z,42.805,6.029,13.3021,4.60069,2470.39,2021-10-07T11:30:23Z
2021-10-07T09:32:04Z,42.805,6.029,13.3014,4.60058,2470.366,2021-10-07T11:33:27Z
2021-10-07T09:35:07Z,42.805,6.029,13.3009,4.60045,2470.366,2021-10-07T11:36:30Z
2021-10-07T09:38:10Z,42.805,6.029,13.3016,4.60049,2470.404,2021-10-07T11:39:33Z
2021-10-07T09:41:13Z,42.805,6.029,13.3014,4.60050,2470.357,2021-10-07T11:42:36Z
2021-10-07T09:44:16Z,42.805,6.029,13.3006,4.60044,2470.366,2021-10-07T11:45:39Z
2021-10-07T09:47:19Z,42.805,6.029,13.3013,4.60043,2470.343,2021-10-07T11:48:42Z
2021-10-07T09:50:23Z,42.805,6.029,13.3006,4.60042,2470.343,2021-10-07T11:51:45Z
2021-10-07T09:53:26Z,42.805,6.029,13.3004,4.60047,2470.343,2021-10-07T11:54:48Z
2021-10-07T09:56:29Z,42.805,6.029,13.3000,4.60035,2470.366,2021-10-07T11:57:52Z
2021-10-07T09:59:32Z,42.805,6.029,13.3007,4.60032,2470.32,2021-10-07T12:00:55Z
2021-10-07T10:02:35Z,42.805,6.029,13.3010,4.60044,2470.366,2021-10-07T12:03:58Z
2021-10-07T10:05:38Z,42.805,6.029,13.3006,4.60049,2470.39,2021-10-07T12:07:01Z
2021-10-07T10:08:41Z,42.805,6.029,13.3000,4.60037,2470.343,2021-10-07T12:10:04Z
2021-10-07T10:11:44Z,42.805,6.029,13.3014,4.60045,2470.334,2021-10-07T12:13:07Z
2021-10-07T10:14:47Z,42.805,6.029,13.3008,4.60039,2470.366,2021-10-07T12:16:10Z
2021-10-07T10:17:51Z,42.805,6.029,13.3007,4.60031,2470.334,2021-10-07T12:19:13Z
2021-10-07T10:20:54Z,42.805,6.029,13.3003,4.60049,2470.32,2021-10-07T12:22:17Z
2021-10-07T10:23:57Z,42.805,6.029,13.3004,4.60044,2470.32,2021-10-07T12:25:20Z
2021-10-07T10:27:00Z,42.805,6.029,13.3006,4.60033,2470.343,2021-10-07T12:28:23Z
2021-10-07T10:30:03Z,42.805,6.029,13.3009,4.60036,2470.357,2021-10-07T12:31:26Z
2021-10-07T10:33:06Z,42.805,6.029,13.3006,4.60029,2470.334,2021-10-07T12:34:29Z
2021-10-07T10:36:09Z,42.805,6.029,13.3001,4.60033,2470.32,2021-10-07T12:37:32Z
2021-10-07T10:39:12Z,42.805,6.029,13.3014,4.60044,2470.32,2021-10-07T12:40:35Z
2021-10-07T10:42:16Z,42.805,6.029,13.3007,4.60036,2470.297,2021-10-07T12:43:38Z
2021-10-07T10:45:19Z,42.805,6.029,13.3004,4.60036,2470.32,2021-10-07T12:46:42Z
2021-10-07T10:48:22Z,42.805,6.029,13.3006,4.60033,2470.32,2021-10-07T12:49:45Z
2021-10-07T10:51:25Z,42.805,6.029,13.3001,4.60034,2470.273,2021-10-07T12:52:48Z
2021-10-07T10:54:28Z,42.805,6.029,13.2999,4.60033,2470.32,2021-10-07T12:55:51Z
2021-10-07T10:57:31Z,42.805,6.029,13.3006,4.60033,2470.32,2021-10-07T12:58:54Z
2021-10-07T11:00:34Z,42.805,6.029,13.3001,4.60043,2470.287,2021-10-07T13:01:57Z
2021-10-07T11:03:37Z,42.805,6.029,13.3004,4.60036,2470.287,2021-10-07T13:05:00Z
2021-10-07T11:06:41Z,42.805,6.029,13.2998,4.60035,2470.334,2021-10-07T13:08:03Z
2021-10-07T11:09:44Z,42.805,6.029,13.3006,4.60050,2470.273,2021-10-07T13:11:07Z
2021-10-07T11:12:47Z,42.805,6.029,13.3004,4.60039,2470.31,2021-10-07T13:14:10Z
2021-10-07T11:15:50Z,42.805,6.029,13.3004,4.60031,2470.273,2021-10-07T13:17:13Z
2021-10-07T11:18:53Z,42.805,6.029,13.3002,4.60029,2470.273,2021-10-07T13:20:16Z
2021-10-07T11:21:56Z,42.805,6.029,13.3004,4.60033,2470.297,2021-10-07T13:23:19Z
2021-10-07T11:24:59Z,42.805,6.029,13.3007,4.60038,2470.287,2021-10-07T13:26:22Z
2021-10-07T11:28:02Z,42.805,6.029,13.3009,4.60041,2470.287,2021-10-07T13:29:25Z
2021-10-07T11:31:06Z,42.805,6.029,13.3006,4.60043,2470.287,2021-10-07T13:32:28Z
2021-10-07T11:34:09Z,42.805,6.029,13.2999,4.60063,2470.25,2021-10-07T13:35:32Z
2021-10-07T11:37:12Z,42.805,6.029,13.3002,4.60033,2470.297,2021-10-07T13:38:35Z
2021-10-07T11:40:15Z,42.805,6.029,13.3009,4.60049,2470.264,2021-10-07T13:41:38Z
2021-10-07T11:43:18Z,42.805,6.029,13.3006,4.60052,2470.25,2021-10-07T13:44:41Z
2021-10-07T11:46:21Z,42.805,6.029,13.3001,4.60052,2470.25,2021-10-07T13:47:44Z
2021-10-07T11:49:24Z,42.805,6.029,13.3002,4.60029,2470.273,2021-10-07T13:50:47Z
2021-10-07T11:52:27Z,42.805,6.029,13.2996,4.60026,2470.264,2021-10-07T13:53:50Z
2021-10-07T11:55:31Z,42.805,6.029,13.3006,4.60035,2470.25,2021-10-07T13:56:53Z
2021-10-07T11:58:34Z,42.805,6.029,13.3009,4.60038,2470.287,2021-10-07T13:59:57Z
2021-10-07T12:01:37Z,42.805,6.029,13.3002,4.60059,2470.287,2021-10-07T14:03:00Z
2021-10-07T12:04:40Z,42.805,6.029,13.3000,4.60065,2470.273,2021-10-07T14:06:03Z
2021-10-07T12:07:43Z,42.805,6.029,13.3004,4.60035,2470.227,2021-10-07T14:09:06Z
2021-10-07T12:10:46Z,42.805,6.029,13.3004,4.60064,2470.25,2021-10-07T14:12:09Z
2021-10-07T12:13:49Z,42.805,6.029,13.3008,4.60046,2470.217,2021-10-07T14:15:12Z
2021-10-07T12:16:52Z,42.805,6.029,13.3006,4.60034,2470.227,2021-10-07T14:18:15Z
2021-10-07T12:19:56Z,42.805,6.029,13.3007,4.60047,2470.25,2021-10-07T14:21:18Z
2021-10-07T12:22:59Z,42.805,6.029,13.3002,4.60026,2470.264,2021-10-07T14:24:21Z
2021-10-07T12:26:02Z,42.805,6.029,13.3008,4.60039,2470.227,2021-10-07T14:27:25Z
2021-10-07T12:29:05Z,42.805,6.029,13.3003,4.60044,2470.24,2021-10-07T14:30:28Z
2021-10-07T12:32:08Z,42.805,6.029,13.2998,4.60039,2470.227,2021-10-07T14:33:31Z
2021-10-07T12:35:11Z,42.805,6.029,13.3005,4.60052,2470.227,2021-10-07T14:36:34Z
2021-10-07T12:38:14Z,42.805,6.029,13.3001,4.60037,2470.203,2021-10-07T14:39:37Z
2021-10-07T12:41:17Z,42.805,6.029,13.3006,4.60033,2470.25,2021-10-07T14:42:40Z
2021-10-07T12:44:21Z,42.805,6.029,13.2998,4.60026,2470.25,2021-10-07T14:45:43Z
2021-10-07T12:47:24Z,42.805,6.029,13.3005,4.60030,2470.203,2021-10-07T14:48:46Z
2021-10-07T12:50:27Z,42.805,6.029,13.3005,4.60036,2470.203,2021-10-07T14:51:50Z
2021-10-07T12:53:30Z,42.805,6.029,13.3003,4.60033,2470.24,2021-10-07T14:54:53Z
2021-10-07T12:56:33Z,42.805,6.029,13.2998,4.60052,2470.227,2021-10-07T14:57:56Z
2021-10-07T12:59:36Z,42.805,6.029,13.3009,4.60034,2470.24,2021-10-07T15:00:59Z
2021-10-07T13:02:39Z,42.805,6.029,13.3004,4.60039,2470.217,2021-10-07T15:04:02Z
2021-10-07T13:05:42Z,42.805,6.029,13.2999,4.60032,2470.227,2021-10-07T15:07:05Z
2021-10-07T13:08:46Z,42.805,6.029,13.3000,4.60034,2470.203,2021-10-07T15:10:08Z
2021-10-07T13:11:49Z,42.805,6.029,13.3001,4.60029,2470.227,2021-10-07T15:13:11Z
2021-10-07T13:14:52Z,42.805,6.029,13.3004,4.60043,2470.217,2021-10-07T15:16:15Z
2021-10-07T13:17:55Z,42.805,6.029,13.3002,4.60041,2470.194,2021-10-07T15:19:18Z
2021-10-07T13:20:58Z,42.805,6.029,13.3001,4.60042,2470.194,2021-10-07T15:22:21Z
2021-10-07T13:24:01Z,42.805,6.029,13.3004,4.60057,2470.217,2021-10-07T15:25:24Z
2021-10-07T13:27:04Z,42.805,6.029,13.2996,4.60046,2470.203,2021-10-07T15:28:27Z
2021-10-07T13:30:07Z,42.805,6.029,13.2998,4.60031,2470.203,2021-10-07T15:31:30Z
2021-10-07T13:33:11Z,42.805,6.029,13.3008,4.60037,2470.18,2021-10-07T15:34:33Z
2021-10-07T13:36:14Z,42.805,6.029,13.3003,4.60046,2470.227,2021-10-07T15:37:36Z
2021-10-07T13:39:17Z,42.805,6.029,13.3004,4.60050,2470.227,2021-10-07T15:40:40Z
2021-10-07T13:42:20Z,42.805,6.029,13.3000,4.60025,2470.217,2021-10-07T15:43:43Z
2021-10-07T13:45:23Z,42.805,6.029,13.2996,4.60041,2470.203,2021-10-07T15:46:46Z
2021-10-07T13:48:26Z,42.805,6.029,13.3005,4.60031,2470.194,2021-10-07T15:49:49Z
2021-10-07T13:51:29Z,42.805,6.029,13.2998,4.60033,2470.203,2021-10-07T15:52:52Z
2021-10-07T13:54:32Z,42.805,6.029,13.3005,4.60054,2470.24,2021-10-07T15:55:55Z
2021-10-07T13:57:36Z,42.805,6.029,13.3012,4.60042,2470.203,2021-10-07T15:58:58Z
2021-10-07T14:00:39Z,42.805,6.029,13.3000,4.60031,2470.18,2021-10-07T16:02:01Z
2021-10-07T14:03:42Z,42.805,6.029,13.3012,4.60045,2470.217,2021-10-07T16:05:05Z
2021-10-07T14:06:45Z,42.805,6.029,13.3000,4.60041,2470.18,2021-10-07T16:08:08Z
2021-10-07T14:09:48Z,42.805,6.029,13.3006,4.60044,2470.18,2021-10-07T16:11:11Z
2021-10-07T14:12:51Z,42.805,6.029,13.2996,4.60032,2470.18,2021-10-07T16:14:14Z
2021-10-07T14:15:54Z,42.805,6.029,13.3000,4.60032,2470.217,2021-10-07T16:17:17Z
2021-10-07T14:18:57Z,42.805,6.029,13.2999,4.60031,2470.24,2021-10-07T16:20:20Z
2021-10-07T14:22:00Z,42.805,6.029,13.3004,4.60074,2470.217,2021-10-07T16:23:23Z
2021-10-07T14:25:04Z,42.805,6.029,13.2998,4.60039,2470.18,2021-10-07T16:26:26Z
2021-10-07T14:28:07Z,42.805,6.029,13.3011,4.60054,2470.24,2021-10-07T16:29:29Z
2021-10-07T14:31:10Z,42.805,6.029,13.3005,4.60037,2470.227,2021-10-07T16:32:33Z
2021-10-07T14:34:13Z,42.805,6.029,13.2995,4.60033,2470.18,2021-10-07T16:35:36Z
2021-10-07T14:37:16Z,42.805,6.029,13.3000,4.60069,2470.24,2021-10-07T16:38:39Z
2021-10-07T14:40:19Z,42.805,6.029,13.2998,4.60052,2470.194,2021-10-07T16:41:42Z
2021-10-07T14:43:22Z,42.805,6.029,13.2998,4.60062,2470.227,2021-10-07T16:44:45Z
2021-10-07T14:46:25Z,42.805,6.029,13.3005,4.60063,2470.227,2021-10-07T16:47:48Z
2021-10-07T14:49:29Z,42.805,6.029,13.3004,4.60049,2470.217,2021-10-07T16:50:51Z
2021-10-07T14:52:32Z,42.805,6.029,13.3007,4.60048,2470.217,2021-10-07T16:53:54Z
2021-10-07T14:55:35Z,42.805,6.029,13.3008,4.60052,2470.18,2021-10-07T16:56:58Z
2021-10-07T14:58:38Z,42.805,6.029,13.3009,4.60056,2470.227,2021-10-07T17:00:01Z
2021-10-07T15:01:41Z,42.805,6.029,13.2998,4.60043,2470.203,2021-10-07T17:03:04Z